EW5134 Weather Reports


time (UTC)temp
F
wind
direction
speed
knots
gust
knots
rain 1hr
in
rain 24hr
in
rain mn
in
humidity
%
barometer
mb
20260505082539 57 198 0.0 5.2 0.01 0.02 0.02 85 1005.8
20260505081039 58 194 4.3 17.4 0.00 0.01 0.01 83 1006.1
20260505080250 59 213 5.2 15.6 0.00 0.01 0.01 77 1006.5
20260505074039 58 183 3.5 8.7 0.00 0.01 0.01 78 1006.1
20260505072542 57 232 2.6 9.6 0.01 0.01 0.01 82 1006.1
20260505071038 56 194 2.6 8.7 0.01 0.01 0.01 85 1006.3
20260505065539 55 165 0.9 1.7 0.01 0.01 0.01 88 1006.3
20260505064037 56 182 0.9 2.6 0.01 0.01 0.01 85 1006.2
20260505062540 57 124 1.7 11.3 0.00 0.00 0.00 80 1006.2
20260505061037 60 324 4.3 16.5 0.00 0.00 0.00 71 1007.2
20260505060940 60 202 3.5 7.8 0.00 0.00 0.00 70 1006.3
20260505054039 62 270 6.1 13.9 0.00 0.00 0.00 67 1006.3
20260505053237 62 203 4.3 10.4 0.00 0.00 0.00 62 1006.1
20260505051034 62 175 4.3 11.3 0.00 0.00 0.00 61 1006.1
20260505041031 61 201 4.3 10.4 0.00 0.00 0.00 61 1005.9
20260505035529 61 201 3.5 12.2 0.00 0.00 0.00 61 1005.8
20260505034030 61 186 3.5 10.4 0.00 0.00 0.00 60 1005.7
20260505033228 62 172 4.3 10.4 0.00 0.00 0.00 59 1005.9
20260505031029 61 181 3.5 9.6 0.00 0.00 0.00 59 1005.9
20260505025515 62 161 4.3 9.6 0.00 0.00 0.00 58 1005.8
20260505024011 62 198 3.5 7.8 0.00 0.00 0.00 59 1005.9
20260505022515 62 153 3.5 7.8 0.00 0.00 0.00 59 1006.0
20260505021008 62 190 3.5 8.7 0.00 0.00 0.00 59 1006.1
20260505020202 62 194 2.6 7.8 0.00 0.00 0.00 57 1006.1
20260505014006 62 126 1.7 5.2 0.00 0.00 0.00 56 1006.0
20260505012507 62 215 1.7 4.3 0.00 0.00 0.00 55 1006.1
20260505011005 60 180 0.9 3.5 0.00 0.00 0.00 58 1006.0
20260505005504 60 275 0.9 0.9 0.00 0.00 0.00 58 1006.0
20260505003751 60 161 0.9 1.7 0.00 0.00 0.00 59 1005.9
20260505002252 63 161 0.9 1.7 0.00 0.00 0.00 56 1005.9
20260505000750 65 161 0.0 1.7 0.00 0.00 0.00 49 1005.9
20260504235251 67 191 0.0 1.7 0.00 0.00 0.00 46 1005.7
20260504233747 69 185 1.7 3.5 0.00 0.00 0.00 43 1005.6
20260504232250 70 208 1.7 5.2 0.00 0.00 0.00 43 1005.5
20260504230743 70 189 2.6 7.0 0.00 0.00 0.00 41 1005.4
20260504230530 71 279 2.6 7.0 0.00 0.00 0.00 41 1005.7
20260504225253 71 226 2.6 6.1 0.00 0.00 0.00 41 1005.6
20260504222934 71 268 3.5 11.3 0.00 0.00 0.00 39 1005.7
20260504220743 71 175 3.5 12.2 0.00 0.00 0.00 40 1005.8
20260504215955 71 181 5.2 16.5 0.00 0.00 0.00 41 1005.9
20260504214414 71 186 6.1 16.5 0.00 0.00 0.00 41 1006.0
20260504212927 70 181 4.3 14.8 0.00 0.00 0.00 45 1006.0
20260504210725 70 169 6.1 13.0 0.00 0.00 0.00 43 1006.1
20260504205933 69 285 6.1 15.6 0.00 0.00 0.00 43 1006.1
20260504203724 70 238 7.0 14.8 0.00 0.00 0.00 43 1006.1
20260504202223 69 227 7.0 20.0 0.00 0.00 0.00 46 1006.1
20260504200725 69 265 8.7 20.9 0.00 0.00 0.00 47 1006.5
20260504195222 69 259 5.2 13.9 0.00 0.00 0.00 49 1006.7
20260504193722 69 188 5.2 13.0 0.00 0.00 0.00 48 1007.0
20260504192220 68 182 6.1 17.4 0.00 0.00 0.00 49 1007.1
20260504190719 67 262 5.2 15.6 0.00 0.00 0.00 53 1007.3
20260504185219 67 281 6.1 15.6 0.00 0.00 0.00 51 1007.4
20260504183718 66 198 7.0 15.6 0.00 0.00 0.00 54 1007.7
20260504182220 66 334 7.0 17.4 0.00 0.00 0.00 53 1007.6
20260504180718 67 173 6.1 15.6 0.00 0.00 0.00 53 1007.6
20260504175217 66 132 7.0 15.6 0.00 0.00 0.00 56 1007.8
20260504173719 65 278 7.8 15.6 0.00 0.00 0.00 57 1007.8
20260504172925 65 184 7.0 15.6 0.00 0.00 0.00 56 1007.8
20260504171433 64 269 7.0 26.1 0.00 0.00 0.00 57 1007.8
20260504160445 62 169 6.1 12.2 0.00 0.00 0.00 58 1008.4
20260504150444 58 17 6.1 15.6 0.00 0.00 0.00 60 1008.9
20260504140442 56 201 5.2 15.6 0.00 0.00 0.00 61 1009.4
20260504130436 53 194 5.2 13.0 0.00 0.00 0.00 62 1009.6
20260504100410 48 185 3.5 8.7 0.00 0.00 0.00 65 1009.8